This demonstration page uses our WeatherBlox Daily Observations layout. Learn more.

Hourly Observations for January 22, 2016

Temp ( °F °C ) Dew Point ( °F °C ) Humidity (%) Winds ( mph kmh ) Pressure ( in mb ) Visibility ( mi km ) Precip ( " mm )
12:15 am 00:15 Cloudy 25 -4 22 -5.7 88 88 N 7 11 30.48 1032 10 16.0934 0 0
12:35 am 00:35 Cloudy 25 -4.1 22 -5.6 89 89 N 9 15 30.48 1032 10 16.0934 0 0
12:55 am 00:55 Cloudy 24 -4.2 22 -5.6 90 90 N 8 13 30.48 1032 10 16.0934 0 0
1:15 am 01:15 Cloudy 24 -4.2 22 -5.6 90 90 N 8 13 30.48 1032 10 16.0934 0 0
1:35 am 01:35 Cloudy 24 -4.2 22 -5.6 90 90 N 5 7 30.48 1032 10 16.0934 0 0
1:55 am 01:55 Cloudy 24 -4.2 22 -5.6 90 90 N 6 9 30.45 1031 10 16.0934 0 0
2:15 am 02:15 Cloudy 24 -4.3 22 -5.6 91 91 N 6 9 30.45 1031 10 16.0934 0 0
2:35 am 02:35 Cloudy 24 -4.4 22 -5.7 91 91 N 6 9 30.45 1031 10 16.0934 0 0
2:55 am 02:55 Cloudy 24 -4.5 22 -5.7 91 91 N 7 11 30.45 1031 10 16.0934 0 0
3:15 am 03:15 Cloudy 24 -4.5 22 -5.8 91 91 N 8 13 30.45 1031 10 16.0934 0 0
3:35 am 03:35 Cloudy 23 -4.8 21 -6.1 91 91 N 6 9 30.45 1031 10 16.0934 0 0
3:55 am 03:55 Cloudy 23 -5 21 -6.1 92 92 N 5 7 30.45 1031 10 16.0934 0 0
4:15 am 04:15 Cloudy 23 -4.8 21 -6 91 91 N 6 9 30.45 1031 10 16.0934 0 0
4:35 am 04:35 Cloudy 23 -4.8 21 -6 91 91 N 7 11 30.45 1031 10 16.0934 0 0
4:55 am 04:55 Cloudy 23 -4.8 21 -6 91 91 N 8 13 30.45 1031 10 16.0934 0 0
5:15 am 05:15 Cloudy 23 -4.8 21 -6 91 91 N 10 17 30.48 1032 10 16.0934 0 0
5:35 am 05:35 Cloudy 23 -4.8 21 -6 91 91 N 8 13 30.48 1032 7 11.26538 0 0
5:55 am 05:55 Cloudy with Mist and Fog 23 -5 21 -6 93 93 N 7 11 30.48 1032 5 8.0467 0 0
6:15 am 06:15 Cloudy with Mist and Fog 23 -5 21 -6 93 93 N 5 7 30.48 1032 4 6.43736 0 0
6:35 am 06:35 Cloudy with Mist and Fog 23 -5.1 21 -6 93 93 N 6 9 30.48 1032 4 6.43736 0 0
6:55 am 06:55 Cloudy with Mist and Fog 23 -5.1 21 -6 93 93 N 3 6 30.48 1032 5 8.0467 0 0
7:15 am 07:15 Cloudy with Mist and Fog 23 -5 22 -5.8 94 94 N 5 7 30.48 1032 4 6.43736 0 0
7:35 am 07:35 Cloudy with Mist and Fog 23 -5 21 -6 93 93 N 6 9 30.48 1032 5 8.0467 0 0
7:55 am 07:55 Cloudy with Mist and Fog 23 -5.2 21 -6 94 94 NNE 6 9 30.48 1032 5 8.0467 0 0
8:15 am 08:15 Cloudy with Mist and Fog 23 -5.2 21 -6 94 94 NNE 7 11 30.48 1032 4 6.43736 0 0
8:35 am 08:35 Cloudy with Mist and Fog 23 -5.2 21 -6 94 94 NNE 7 11 30.5 1033 4 6.43736 0 0
8:55 am 08:55 Cloudy with Mist and Fog 23 -5.2 21 -6 94 94 NNE 7 11 30.5 1033 3 4.82802 0 0
9:15 am 09:15 Cloudy with Mist and Fog 22 -5.5 21 -6.1 96 96 ENE 7 11 30.5 1033 2 3.21868 0 0
9:35 am 09:35 Cloudy with Mist and Fog 22 -5.5 21 -6.2 95 95 NE 6 9 30.5 1033 2 3.21868 0 0
9:55 am 09:55 Cloudy with Mist and Fog 22 -5.5 21 -6.1 96 96 ENE 5 7 30.5 1033 3 4.82802 0 0
10:15 am 10:15 Cloudy with Mist and Fog 23 -5.2 21 -6 94 94 NE 3 6 30.5 1033 4 6.43736 0 0
10:35 am 10:35 Cloudy with Mist and Fog 23 -5.2 21 -6.1 93 93 ENE 3 6 30.5 1033 5 8.0467 0 0
10:55 am 10:55 Cloudy 23 -5.1 21 -6.3 91 91 Calm 30.5 1033 7 11.26538 0 0
11:15 am 11:15 Cloudy 23 -5 20 -6.4 90 90 Calm 30.5 1033 7 11.26538 0 0
11:35 am 11:35 Cloudy 23 -4.8 20 -6.5 88 88 Calm 30.5 1033 7 11.26538 0 0
11:55 am 11:55 Cloudy 24 -4.6 21 -6.2 89 89 Calm 30.5 1033 7 11.26538 0 0
12:15 pm 12:15 Cloudy 24 -4.3 21 -6.1 87 87 Calm 30.5 1033 7 11.26538 0 0
12:35 pm 12:35 Cloudy 25 -3.8 21 -6 85 85 Calm 30.48 1032 10 16.0934 0 0
12:55 pm 12:55 Cloudy 26 -3.5 21 -5.9 84 84 Calm 30.45 1031 10 16.0934 0 0
1:15 pm 13:15 Cloudy 26 -3.3 22 -5.6 84 84 Calm 30.45 1031 10 16.0934 0 0
1:35 pm 13:35 Cloudy 26 -3.6 21 -6.1 83 83 Calm 30.48 1032 10 16.0934 0 0
1:55 pm 13:55 Cloudy 26 -3.5 21 -5.9 84 84 Calm 30.42 1030 10 16.0934 0 0
2:15 pm 14:15 Cloudy 26 -3.2 22 -5.6 84 84 Calm 30.42 1030 10 16.0934 0 0
2:35 pm 14:35 Cloudy 26 -3.1 22 -5.6 83 83 Calm 30.42 1030 10 16.0934 0 0
2:55 pm 14:55 Cloudy 26 -3.1 22 -5.6 83 83 Calm 30.42 1030 10 16.0934 0 0
3:15 pm 15:15 Cloudy 27 -3 22 -5.5 83 83 Calm 30.42 1030 10 16.0934 0 0
3:35 pm 15:35 Cloudy 27 -3 22 -5.5 83 83 Calm 30.42 1030 10 16.0934 0 0
3:55 pm 15:55 Cloudy 27 -3 22 -5.3 84 84 Calm 30.42 1030 10 16.0934 0 0
4:15 pm 16:15 Cloudy 27 -3 23 -5.1 86 86 ESE 5 7 30.42 1030 10 16.0934 0 0
4:35 pm 16:35 Cloudy 27 -3 23 -5.2 85 85 SE 6 9 30.39 1029 10 16.0934 0 0
4:55 pm 16:55 Cloudy 26 -3.3 22 -5.5 85 85 SSE 6 9 30.39 1029 10 16.0934 0 0
5:15 pm 17:15 Cloudy 26 -3.5 22 -5.5 86 86 ESE 8 13 30.39 1029 10 16.0934 0 0
5:35 pm 17:35 Cloudy 26 -3.5 22 -5.5 86 86 SE 8 13 30.39 1029 10 16.0934 0 0
5:55 pm 17:55 Cloudy 26 -3.6 22 -5.5 87 87 SSE 8 13 30.39 1029 10 16.0934 0 0
6:15 pm 18:15 Cloudy 26 -3.5 22 -5.6 86 86 S 6 9 30.39 1029 10 16.0934 0 0
6:35 pm 18:35 Cloudy 25 -3.7 22 -5.6 87 87 S 6 9 30.39 1029 10 16.0934 0 0
6:55 pm 18:55 Cloudy 25 -3.7 22 -5.6 87 87 S 5 7 30.39 1029 10 16.0934 0 0
7:15 pm 19:15 Cloudy 25 -3.8 22 -5.6 87 87 S 7 11 30.39 1029 10 16.0934 0 0
7:35 pm 19:35 Cloudy 25 -3.8 22 -5.7 87 87 SSW 7 11 30.39 1029 10 16.0934 0 0
7:55 pm 19:55 Cloudy 25 -3.9 22 -5.8 87 87 SSW 7 11 30.39 1029 10 16.0934 0 0
8:15 pm 20:15 Cloudy 25 -3.8 22 -5.7 87 87 SSW 9 15 30.39 1029 10 16.0934 0 0
8:35 pm 20:35 Cloudy 25 -4 21 -5.9 87 87 S 9 15 30.36 1028 10 16.0934 0 0
8:55 pm 20:55 Cloudy 25 -4 22 -5.7 88 88 SSW 9 15 30.36 1028 10 16.0934 0 0
9:15 pm 21:15 Cloudy 25 -4.1 22 -5.6 89 89 S 9 15 30.36 1028 10 16.0934 0 0
9:35 pm 21:35 Cloudy 25 -4.1 22 -5.5 90 90 S 8 13 30.36 1028 10 16.0934 0 0
9:55 pm 21:55 Cloudy 25 -4 22 -5.5 89 89 SSW 9 15 30.36 1028 10 16.0934 0 0
10:15 pm 22:15 Cloudy 25 -4.1 22 -5.5 90 90 S 10 17 30.33 1027 10 16.0934 0 0
10:35 pm 22:35 Cloudy 24 -4.3 22 -5.6 91 91 S 9 15 30.33 1027 10 16.0934 0 0
10:55 pm 22:55 Cloudy 24 -4.5 22 -5.6 92 92 S 12 19 30.33 1027 10 16.0934 0 0
11:15 pm 23:15 Cloudy 24 -4.6 22 -5.7 92 92 SSW 10 17 30.36 1028 10 16.0934 0 0
11:35 pm 23:35 Cloudy 24 -4.6 22 -5.7 92 92 SSW 10 17 30.36 1028 10 16.0934 0 0
11:55 pm 23:55 Cloudy 24 -4.5 22 -5.5 93 93 S 12 19 30.33 1027 10 16.0934 0 0

Powered by AerisWeather